Regional Weather Roundup
Issued by NWS

Home | Current Version | Previous Version | Text Only | Print | Product List | Glossary On
Versions: 1 2 3 4 5 6 7 8 9 10 11 12 13 14 15 16 17 18 19 20 21 22 23 24 25 26 27
000
ASUS45 KBOI 221910
RWRID

IDAHO REGIONAL WEATHER ROUNDUP
NATIONAL WEATHER SERVICE BOISE ID
100 PM MDT MON MAY 22 2017

NOTE: "FAIR" INDICATES FEW OR NO CLOUDS BELOW 12000 FEET
WITH NO SIGNIFICANT WEATHER AND/OR OBSTRUCTIONS TO VISIBILITY

IDZ012-014-222000-
SOUTHWEST IDAHO


CITY           SKY/WX    TMP DP  RH WIND       PRES   REMARKS
BOISE          SUNNY     75  47  36 W7        30.19F
CALDWELL       SUNNY     74  48  39 VRB6      30.19F
MOUNTAIN HOME  SUNNY     75  44  32 W8        30.18F
$$

IDZ016-017-222000-
SOUTHCENTRAL IDAHO


CITY           SKY/WX    TMP DP  RH WIND       PRES   REMARKS
BURLEY         SUNNY     71  47  42 W9        30.22F
JEROME         SUNNY     71  45  39 W9        30.23F
TWIN FALLS     SUNNY     71  46  40 VRB5      30.24F
$$

IDZ019>023-222000-
SOUTHEAST IDAHO


CITY           SKY/WX    TMP DP  RH WIND       PRES   REMARKS
IDAHO FALLS    MOSUNNY   68  35  29 W9        30.23F
POCATELLO      MOSUNNY   70  37  29 VRB5      30.24F
REXBURG        SUNNY     67  37  33 VRB7      30.22F
$$

IDZ006-010-011-018-031-032-222000-
CENTRAL IDAHO MOUNTAINS


CITY           SKY/WX    TMP DP  RH WIND       PRES   REMARKS
MCCALL         SUNNY     68  30  24 N6        30.25S
HAILEY         MOSUNNY   66  45  45 SE12      30.26F
STANLEY          N/A     65  29  25 E5        30.31F
SALMON         SUNNY     64  37  36 CALM      30.20F
CHALLIS        SUNNY     67  31  26 VRB3      30.24F
$$

IDZ002-004-006-007-026-222000-
NORTHERN IDAHO


CITY           SKY/WX    TMP DP  RH WIND       PRES   REMARKS
LEWISTON       SUNNY     75  50  41 CALM      30.17F
LOWELL           N/A     77  44  30 S3        30.14F
COEUR D`ALENE  SUNNY     74  49  41 CALM      30.20S
MULLAN PASS    SUNNY     62  36  37 VRB6      30.32S
$$




USA.gov is the U.S. government's official web portal to all federal, state and local government web resources and services.